Location: La Silve
(44.2414°N, 5.8889°E)
Time: 18:33:05
(UTC+00:00)

ERS-2 - Pass Details

Date: 01 December 2020
Orbit: 492 x 498 km, 98.6° (Epoch: 23 January)

Event Time Altitude Azimuth Distance (km) Brightness Sun altitude
Exits shadow 18:11:10 17° 347° (NNW) 1,352 4.3 -23.1°
Maximum altitude 18:13:30 33° 291° (WNW) 854 3.7 -23.5°
Drops below altitude 10° 18:16:49 10° 226° (SW) 1,698 5.5 -24.1°
Sets 18:19:00 0° 216° (SW) 2,576 6.4 -24.4°
